When you browse on this site, cookies collect data to enhance your experience and personalize the content and advertising you see.
Visit our Privacy Policy to learn more. By continuing to use the site, you agree to this use of cookies and data.
  • In Hungary
  • List of Countries
  • For 7 days
  • Water Temperature
  • Satellite Maps
  • Weather Map
  • News
  • Weather Widgets
  • user-avatar
    Login

    Hourly Weather Micherdowka

    Today, 20 November, Tuesday

    Time Temperature Precipitation Wind Pressure Humidity
    00:00 -4°C° 0 mm 3 mps 723 mmHg 87%
    01:00 -3°C° 0 mm 2 mps 724 mmHg 87%
    02:00 -4°C° 0 mm 3 mps 723 mmHg 87%
    03:00 -4°C° 0 mm 3 mps 723 mmHg 87%
    04:00 -4°C° 0 mm 4 mps 723 mmHg 87%
    05:00 -4°C° 0 mm 4 mps 723 mmHg 87%
    06:00 -4°C° 0 mm 4 mps 723 mmHg 87%
    07:00 -4°C° 0 mm 4 mps 722 mmHg 87%
    08:00 -3°C° 0 mm 4 mps 722 mmHg 83%
    09:00 -2°C° 0 mm 4 mps 722 mmHg 79%
    10:00 -2°C° 0 mm 5 mps 722 mmHg 74%
    11:00 -1°C° 0 mm 5 mps 721 mmHg 72%
    12:00 0°C° 0 mm 5 mps 721 mmHg 70%
    13:00 0°C° 0 mm 4 mps 721 mmHg 67%
    14:00 0°C° 0.3 mm 4 mps 721 mmHg 72%
    15:00 -1°C° 0.3 mm 4 mps 721 mmHg 76%
    16:00 -1°C° 0.3 mm 4 mps 720 mmHg 81%
    17:00 0°C° 0.7 mm 3 mps 720 mmHg 84%
    18:00 0°C° 0.7 mm 3 mps 720 mmHg 87%
    19:00 -1°C° 0.7 mm 3 mps 720 mmHg 90%
    20:00 -1°C° 0.1 mm 3 mps 720 mmHg 91%
    21:00 -1°C° 0.1 mm 3 mps 720 mmHg 91%
    22:00 -1°C° 0.1 mm 2 mps 720 mmHg 92%
    23:00 -1°C° 0 mm 2 mps 720 mmHg 92%

    Tomorrow, 21 November, Wednesday

    Time Temperature Precipitation Wind Pressure Humidity
    00:00 -1°C° 0 mm 2 mps 720 mmHg 92%
    01:00 -1°C° 0 mm 2 mps 721 mmHg 92%
    02:00 -1°C° 0 mm 2 mps 721 mmHg 92%
    03:00 -1°C° 0 mm 2 mps 720 mmHg 92%
    04:00 -1°C° 0 mm 2 mps 720 mmHg 93%
    05:00 -1°C° 0 mm 2 mps 721 mmHg 92%
    06:00 -1°C° 0 mm 2 mps 721 mmHg 92%
    07:00 -1°C° 0 mm 2 mps 721 mmHg 92%
    08:00 +1°C° 0 mm 2 mps 721 mmHg 90%
    09:00 +1°C° 0 mm 2 mps 722 mmHg 88%
    10:00 +1°C° 0 mm 3 mps 722 mmHg 86%
    11:00 +1°C° 0 mm 3 mps 722 mmHg 85%
    12:00 +1°C° 0 mm 3 mps 722 mmHg 85%
    13:00 +2°C° 0 mm 3 mps 722 mmHg 84%
    14:00 +1°C° 0 mm 3 mps 722 mmHg 86%
    15:00 0°C° 0 mm 3 mps 722 mmHg 88%
    16:00 0°C° 0 mm 3 mps 722 mmHg 90%
    17:00 0°C° 0 mm 3 mps 723 mmHg 90%
    18:00 0°C° 0 mm 3 mps 723 mmHg 90%
    19:00 -1°C° 0 mm 3 mps 723 mmHg 90%
    20:00 -1°C° 0 mm 3 mps 723 mmHg 91%
    21:00 -1°C° 0 mm 2 mps 724 mmHg 91%
    22:00 -1°C° 0 mm 2 mps 724 mmHg 91%
    23:00 -1°C° 0 mm 2 mps 724 mmHg 92%

    Day after tomorrow, 22 November, Thursday

    Time Temperature Precipitation Wind Pressure Humidity
    00:00 -1°C° 0 mm 2 mps 724 mmHg 92%
    01:00 -1°C° 0 mm 2 mps 724 mmHg 92%
    02:00 -1°C° 0 mm 2 mps 724 mmHg 92%
    03:00 -1°C° 0 mm 2 mps 724 mmHg 92%
    04:00 -1°C° 0 mm 2 mps 724 mmHg 91%
    05:00 -1°C° 0.1 mm 2 mps 724 mmHg 91%
    06:00 -1°C° 0.1 mm 2 mps 724 mmHg 91%
    07:00 -1°C° 0.1 mm 2 mps 724 mmHg 91%
    08:00 -1°C° 0.1 mm 2 mps 724 mmHg 90%
    09:00 +1°C° 0.1 mm 2 mps 725 mmHg 88%
    10:00 +1°C° 0.1 mm 2 mps 725 mmHg 86%
    11:00 +2°C° 0.1 mm 2 mps 725 mmHg 85%
    12:00 +3°C° 0.1 mm 1 mps 725 mmHg 85%
    13:00 +4°C° 0.1 mm 1 mps 725 mmHg 84%
    14:00 +3°C° 0.1 mm 1 mps 725 mmHg 86%
    15:00 +3°C° 0.1 mm 1 mps 725 mmHg 89%
    16:00 +2°C° 0.1 mm 1 mps 725 mmHg 91%
    17:00 +2°C° 0.1 mm 1 mps 725 mmHg 92%
    18:00 +2°C° 0.1 mm 1 mps 726 mmHg 92%
    19:00 +2°C° 0.1 mm 1 mps 726 mmHg 93%
    20:00 +2°C° 0.1 mm 1 mps 726 mmHg 93%
    21:00 +2°C° 0.1 mm 1 mps 726 mmHg 93%
    22:00 +2°C° 0.1 mm 1 mps 726 mmHg 93%
    23:00 +2°C° 0 mm 1 mps 726 mmHg 93%

    23 November, Friday

    Time Temperature Precipitation Wind Pressure Humidity
    00:00 +2°C° 0 mm 1 mps 726 mmHg 93%
    01:00 +2°C° 0 mm 1 mps 726 mmHg 93%
    02:00 +2°C° 0 mm 1 mps 726 mmHg 93%
    03:00 +2°C° 0 mm 1 mps 726 mmHg 93%
    04:00 +2°C° 0 mm 1 mps 726 mmHg 93%
    05:00 +2°C° 0 mm 1 mps 727 mmHg 93%
    06:00 +2°C° 0 mm 1 mps 727 mmHg 93%
    07:00 +2°C° 0 mm 1 mps 727 mmHg 93%
    08:00 +3°C° 0 mm 1 mps 727 mmHg 90%
    09:00 +4°C° 0 mm 1 mps 727 mmHg 87%
    10:00 +5°C° 0 mm 1 mps 728 mmHg 84%
    11:00 +6°C° 0 mm 1 mps 727 mmHg 82%
    12:00 +6°C° 0 mm 1 mps 727 mmHg 81%
    13:00 +7°C° 0 mm 1 mps 727 mmHg 80%
    14:00 +6°C° 0 mm 1 mps 727 mmHg 83%
    15:00 +5°C° 0 mm 1 mps 727 mmHg 87%
    16:00 +4°C° 0 mm 1 mps 726 mmHg 91%
    17:00 +4°C° 0 mm 1 mps 726 mmHg 91%
    18:00 +3°C° 0 mm 1 mps 726 mmHg 92%
    19:00 +3°C° 0 mm 1 mps 726 mmHg 92%
    20:00 +3°C° 0 mm 1 mps 726 mmHg 92%
    21:00 +3°C° 0 mm 1 mps 726 mmHg 92%
    22:00 +3°C° 0 mm 1 mps 726 mmHg 92%
    23:00 +2°C° 0 mm 2 mps 725 mmHg 91%

    24 November, Saturday

    Time Temperature Precipitation Wind Pressure Humidity
    00:00 +2°C° 0 mm 2 mps 725 mmHg 91%
    01:00 +2°C° 0 mm 2 mps 725 mmHg 91%
    02:00 +2°C° 0 mm 2 mps 724 mmHg 91%
    03:00 +2°C° 0 mm 2 mps 724 mmHg 91%
    04:00 +1°C° 0 mm 2 mps 723 mmHg 91%
    05:00 +2°C° 0 mm 2 mps 723 mmHg 91%
    06:00 +2°C° 0 mm 2 mps 722 mmHg 91%
    07:00 +2°C° 0 mm 2 mps 722 mmHg 91%
    08:00 +3°C° 0 mm 2 mps 722 mmHg 88%
    09:00 +4°C° 0 mm 2 mps 722 mmHg 85%
    10:00 +5°C° 0 mm 2 mps 722 mmHg 82%
    11:00 +6°C° 0 mm 2 mps 721 mmHg 80%
    12:00 +6°C° 0 mm 2 mps 721 mmHg 79%
    13:00 +7°C° 0 mm 2 mps 720 mmHg 78%
    14:00 +6°C° 0 mm 2 mps 720 mmHg 81%
    15:00 +6°C° 0 mm 2 mps 719 mmHg 85%
    16:00 +5°C° 0 mm 2 mps 719 mmHg 88%
    17:00 +5°C° 0.1 mm 2 mps 719 mmHg 88%
    18:00 +5°C° 0.1 mm 2 mps 719 mmHg 89%
    19:00 +5°C° 0.1 mm 2 mps 718 mmHg 89%
    20:00 +5°C° 0.6 mm 2 mps 718 mmHg 90%
    21:00 +5°C° 0.6 mm 2 mps 718 mmHg 91%
    22:00 +5°C° 0.6 mm 2 mps 718 mmHg 92%
    23:00 +5°C° 0.2 mm 2 mps 718 mmHg 92%

    25 November, Sunday

    Time Temperature Precipitation Wind Pressure Humidity
    00:00 +5°C° 0.2 mm 2 mps 717 mmHg 92%
    01:00 +5°C° 0.2 mm 2 mps 717 mmHg 91%
    02:00 +5°C° 0.1 mm 2 mps 717 mmHg 92%
    03:00 +5°C° 0.1 mm 2 mps 717 mmHg 92%
    04:00 +5°C° 0.1 mm 2 mps 716 mmHg 92%
    05:00 +4°C° 0 mm 2 mps 716 mmHg 92%
    06:00 +3°C° 0 mm 3 mps 716 mmHg 92%
    07:00 +3°C° 0 mm 3 mps 716 mmHg 91%
    08:00 +3°C° 0 mm 3 mps 716 mmHg 87%
    09:00 +4°C° 0 mm 4 mps 716 mmHg 83%
    10:00 +5°C° 0 mm 4 mps 717 mmHg 79%
    11:00 +5°C° 0 mm 4 mps 717 mmHg 77%
    12:00 +5°C° 0 mm 4 mps 716 mmHg 75%
    13:00 +6°C° 0 mm 4 mps 716 mmHg 73%
    14:00 +5°C° 0 mm 4 mps 716 mmHg 77%
    15:00 +4°C° 0 mm 3 mps 716 mmHg 80%
    16:00 +3°C° 0 mm 3 mps 716 mmHg 84%
    17:00 +4°C° 0 mm 2 mps 716 mmHg 85%
    18:00 +4°C° 0 mm 2 mps 716 mmHg 86%
    19:00 +4°C° 0 mm 2 mps 716 mmHg 88%
    20:00 +4°C° 0.1 mm 2 mps 716 mmHg 88%
    21:00 +4°C° 0.1 mm 2 mps 716 mmHg 88%
    22:00 +4°C° 0.1 mm 2 mps 716 mmHg 88%
    23:00 +3°C° 0.3 mm 2 mps 716 mmHg 89%
    Show more